[[{"header":{"parameterUnit":"m.s-1","parameterCategory":1,"la1":30.2991,"la2":30.254,"lo1":-89.0895,"lo2":-89.0444,"dy":0.0017,"dx":0.0017,"nx":28,"ny":28,"refTime":"2025-02-09T09:00:00:Z","depth":0,"parameterNumber":2,"parameterNumberName":"U-component_of_WINDS"},"data":[0,0,0,0,0,0,0,0,0,0,0,0,0,0,0,0,0,0,0,0,0,0,0,0,0,0,0,0,0,0,0,0,0,0,0,0,0,0,0,0,0,0,0,0,0,0,0,0,0,0,0,0,0,0,0,0,0,0,-1.5278,-1.5278,0,-1.5334,-1.5334,-1.5335,-1.5323,-1.5322,-1.5321,-1.532,-1.5378,-1.538,-1.5383,0,0,0,0,0,0,0,0,0,0,0,0,0,-1.516,-1.5162,-1.5278,-1.5278,-1.5279,-1.5334,-1.5334,-1.5335,-1.5323,-1.5322,-1.5321,-1.5319,-1.5377,-1.538,-1.5383,0,0,0,0,0,0,0,0,0,0,0,0,0,-1.5213,-1.5163,-1.5277,-1.528,-1.528,-1.5334,-1.5334,-1.5335,-1.5323,-1.5322,-1.532,-1.5319,-1.5376,-1.538,-1.5384,-1.5438,0,0,-1.5395,-1.5397,0,0,0,0,0,0,0,0,-1.521,-1.5217,-1.5279,-1.5279,-1.528,-1.532,-1.5314,-1.537,-1.5324,-1.5307,-1.532,-1.5318,-1.536,-1.5365,-1.5379,-1.5441,-1.5444,-1.5395,-1.5398,-1.5399,-1.54,0,0,0,0,0,0,0,-1.5206,-1.5215,-1.53,-1.5279,-1.5281,-1.5278,-1.5283,-1.5325,-1.5342,-1.5308,-1.5308,-1.5314,-1.536,-1.5375,-1.538,-1.5444,-1.5395,-1.5399,-1.5401,-1.5402,-1.5553,-1.5555,0,0,0,0,0,0,-1.5202,-1.5212,-1.5298,-1.5302,-1.5241,-1.5281,-1.5288,-1.5309,-1.5341,-1.5345,-1.5316,-1.5314,-1.537,-1.5376,-1.5382,-1.5447,-1.5399,-1.5403,-1.5405,-1.5551,-1.5553,-1.5555,0,0,0,0,0,0,-1.5199,-1.521,-1.5296,-1.5257,-1.5267,-1.5285,-1.5309,-1.5311,-1.5326,-1.5347,-1.535,-1.5328,-1.5369,-1.5377,-1.5424,-1.5449,-1.5405,-1.5408,-1.5549,-1.5552,-1.5554,-1.5579,0,0,0,0,0,0,-1.5196,-1.5209,-1.523,-1.5257,-1.5269,-1.5337,-1.531,-1.5313,-1.5332,-1.533,-1.5359,-1.5362,-1.5368,-1.5419,-1.5428,-1.5454,-1.5411,-1.5547,-1.5551,-1.5554,-1.5576,-1.5582,-1.5587,0,0,0,0,0,-1.5192,-1.5235,-1.5231,-1.5241,-1.5296,-1.5338,-1.5345,-1.5351,-1.5334,-1.5356,-1.5369,-1.5361,-1.5445,-1.5423,-1.5434,-1.5461,-1.5546,-1.555,-1.5553,-1.5573,-1.5581,-1.5587,0,0,0,0,0,0,-1.5211,-1.5239,-1.5234,-1.5288,-1.5311,-1.5336,-1.5363,-1.5359,-1.5387,-1.5384,-1.539,-1.5396,-1.5444,-1.5458,-1.5433,-1.5515,-1.5493,-1.5499,-1.5505,-1.5512,-1.5517,-1.5513,-1.5414,0,0,0,0,0,-1.5221,-1.5253,-1.5276,-1.532,-1.5332,-1.5346,-1.5364,-1.5366,-1.5391,-1.54,-1.5417,-1.5441,-1.5472,-1.5493,-1.5523,-1.5578,-1.5584,-1.5602,-1.5608,-1.5612,-1.5617,-1.5646,-1.5654,-1.5568,-1.5568,-1.5568,0,0,-1.5243,-1.5262,-1.5282,-1.5325,-1.5343,-1.5375,-1.5354,-1.539,-1.5414,-1.5406,-1.5451,-1.5464,-1.5491,-1.5542,-1.5565,-1.5555,-1.5642,-1.5617,-1.5621,-1.5623,-1.565,-1.5659,-1.5666,-1.5571,-1.557,-1.557,0,0,-1.5298,-1.5317,-1.5355,-1.5374,-1.5401,-1.541,-1.5419,-1.5445,-1.5453,-1.5499,-1.5493,-1.5522,-1.5577,-1.5596,-1.5612,-1.5675,-1.5668,-1.5685,-1.5714,-1.5741,-1.5748,-1.5754,-1.5775,-1.5783,-1.569,-1.569,-1.569,0,-1.5322,-1.5371,-1.5376,-1.5412,-1.543,-1.5424,-1.5463,-1.5481,-1.5517,-1.553,-1.5517,-1.5585,-1.5603,-1.5657,-1.5672,-1.5687,-1.5697,-1.5681,-1.5747,-1.5753,-1.5759,-1.5779,-1.5787,-1.5691,-1.5691,-1.5691,-1.5691,0,-1.5397,-1.5431,-1.5459,-1.5493,-1.5515,-1.5553,-1.5563,-1.5585,-1.5585,-1.5595,-1.5641,-1.5662,-1.5696,-1.5709,-1.571,-1.5764,-1.5756,-1.5745,-1.5723,-1.5768,-1.5787,-1.5795,-1.5694,-1.5693,-1.5693,-1.5692,0,0,-1.5466,-1.5502,-1.5512,-1.5527,-1.5557,-1.5583,-1.562,-1.5653,-1.5671,-1.5696,-1.5726,-1.5772,-1.5762,-1.5781,-1.5784,-1.5809,-1.5855,-1.5795,-1.5796,-1.5804,-1.5914,-1.5921,-1.593,-1.5852,-1.5853,-1.5854,-1.5911,0,-1.5524,-1.5588,-1.5593,-1.5651,-1.5682,-1.5677,-1.5708,-1.573,-1.574,-1.5768,-1.5779,-1.5811,-1.5796,-1.5807,-1.5832,-1.5844,-1.5877,-1.5841,-1.5879,-1.5881,-1.5871,-1.594,-1.5948,-1.6,-1.5919,-1.592,-1.5921,0,-1.5599,-1.5626,-1.5686,-1.5711,-1.5724,-1.5752,-1.5782,-1.5809,-1.5833,-1.5839,-1.586,-1.5859,-1.5896,-1.5873,-1.5924,-1.5899,-1.5916,-1.5924,-1.5926,-1.5929,-1.5903,-1.5943,-1.6017,-1.6025,-1.5933,-1.5932,-1.5931,0,-1.5642,-1.5693,-1.5735,-1.5748,-1.5778,-1.5798,-1.5811,-1.5834,-1.5853,-1.5879,-1.5891,-1.5922,-1.5939,-1.5962,-1.597,-1.5952,-1.602,-1.5998,-1.6025,-1.6025,-1.6039,-1.6037,-1.6115,-1.6051,-1.6051,-1.6051,-1.6051,0,-1.5704,-1.5741,-1.5754,-1.5781,-1.5822,-1.5827,-1.5868,-1.588,-1.59,-1.5928,-1.5926,-1.5952,-1.5961,-1.5989,-1.5996,-1.6036,-1.6044,-1.6049,-1.605,-1.6049,-1.6048,-1.6058,-1.6054,-1.6053,-1.6053,-1.6052,-1.6052,0,-1.5758,-1.5769,-1.5814,-1.5839,-1.5845,-1.5875,-1.5895,-1.592,-1.593,-1.5965,-1.5974,-1.5989,-1.6022,-1.6032,-1.6072,-1.6076,-1.6123,-1.6121,-1.6114,-1.6114,-1.614,-1.6137,-1.6226,-1.6237,-1.6168,-1.6168,-1.6169,0,-1.5797,-1.5825,-1.5852,-1.587,-1.5884,-1.5914,-1.5933,-1.594,-1.596,-1.5989,-1.6011,-1.6043,-1.6069,-1.6121,-1.6136,-1.6166,-1.6164,-1.6193,-1.6168,-1.6165,-1.6163,-1.616,-1.6162,-1.6197,-1.6198,-1.6199,-1.6199,0,-1.5864,-1.5868,-1.5895,-1.5924,-1.5947,-1.597,-1.5993,-1.6008,-1.6018,-1.6041,-1.6074,-1.6094,-1.6134,-1.6166,-1.6196,-1.621,-1.6206,-1.6207,-1.6214,-1.6213,-1.6207,-1.6209,-1.6125,-1.6205,-1.6204,-1.6204,-1.6203,-1.6203,-1.5911,-1.5935,-1.5957,-1.5988,-1.6005,-1.6026,-1.605,-1.6063,-1.609,-1.6123,-1.6126,-1.6161,-1.6184,-1.6224,-1.6239,-1.6267,-1.6258,-1.627,-1.6272,-1.6275,-1.6276,-1.6204,-1.6273,-1.6272,-1.6272,-1.6272,-1.6272,0,-1.5976,-1.599,-1.6018,-1.6049,-1.6073,-1.6068,-1.6092,-1.6112,-1.6143,-1.6165,-1.619,-1.6228,-1.6258,-1.6275,-1.6305,-1.6324,-1.6323,-1.6332,-1.633,-1.6333,-1.6283,-1.6272,-1.6332,-1.6332,-1.6332,-1.6332,-1.6332,-1.6332,-1.6013,-1.6053,-1.606,-1.6108,-1.6122,-1.6156,-1.6171,-1.619,-1.6207,-1.6248,-1.6274,-1.6284,-1.6304,-1.6335,-1.6363,-1.6367,-1.6378,-1.6387,-1.639,-1.6343,-1.6336,-1.633,-1.6321,-1.639,-1.639,-1.6437,-1.6438,-1.6438]},{"header":{"parameterUnit":"m.s-1","parameterCategory":1,"la1":30.2991,"la2":30.254,"lo1":-89.0895,"lo2":-89.0444,"dy":0.0017,"dx":0.0017,"nx":28,"ny":28,"refTime":"2025-02-09T09:00:00:Z","depth":0,"parameterNumber":3,"parameterNumberName":"V-component_of_WINDS"},"data":[0,0,0,0,0,0,0,0,0,0,0,0,0,0,0,0,0,0,0,0,0,0,0,0,0,0,0,0,0,0,0,0,0,0,0,0,0,0,0,0,0,0,0,0,0,0,0,0,0,0,0,0,0,0,0,0,0,0,0.374,0.3742,0,0.3924,0.3926,0.3928,0.402,0.4021,0.4021,0.4021,0.4209,0.4214,0.4219,0,0,0,0,0,0,0,0,0,0,0,0,0,0.347,0.3475,0.374,0.3742,0.3745,0.3924,0.3926,0.3929,0.402,0.4021,0.4021,0.4021,0.4207,0.4213,0.4219,0,0,0,0,0,0,0,0,0,0,0,0,0,0.3614,0.3476,0.374,0.3812,0.382,0.3923,0.3927,0.393,0.402,0.4021,0.4021,0.4021,0.4205,0.4213,0.422,0.4265,0,0,0.4243,0.4246,0,0,0,0,0,0,0,0,0.3606,0.3624,0.3799,0.3807,0.3817,0.3949,0.3901,0.4042,0.402,0.3944,0.4021,0.4021,0.4123,0.4137,0.4171,0.4274,0.4282,0.4244,0.4248,0.4251,0.4254,0,0,0,0,0,0,0,0.3596,0.3616,0.3813,0.3801,0.3812,0.3836,0.3856,0.3928,0.4031,0.3951,0.3958,0.3979,0.4127,0.4164,0.4176,0.4285,0.4243,0.425,0.4255,0.4258,0.4437,0.4437,0,0,0,0,0,0,0.3574,0.3608,0.3807,0.3818,0.3709,0.3841,0.3864,0.3907,0.4031,0.4049,0.3978,0.3982,0.4151,0.4168,0.4183,0.4247,0.4251,0.4258,0.4263,0.4437,0.4437,0.4438,0,0,0,0,0,0,0.3568,0.3591,0.38,0.3715,0.3744,0.3845,0.3893,0.391,0.3947,0.4051,0.407,0.3997,0.4152,0.4173,0.4245,0.4254,0.4262,0.4269,0.4437,0.4437,0.4437,0.4371,0,0,0,0,0,0,0.356,0.3588,0.3605,0.3715,0.3748,0.3857,0.3894,0.3914,0.396,0.3966,0.4073,0.4091,0.4153,0.4233,0.4252,0.4265,0.4274,0.4436,0.4437,0.4437,0.4373,0.437,0.4366,0,0,0,0,0,0.355,0.3579,0.3606,0.3629,0.3772,0.3858,0.3877,0.3948,0.396,0.3979,0.4047,0.4088,0.425,0.424,0.4262,0.4277,0.4436,0.4437,0.4437,0.4375,0.437,0.4366,0,0,0,0,0,0,0.3468,0.3595,0.3626,0.3691,0.3763,0.3873,0.3899,0.394,0.401,0.4013,0.4099,0.4122,0.4187,0.4239,0.4226,0.4329,0.4347,0.4352,0.4292,0.4289,0.4285,0.4272,0.4281,0,0,0,0,0,0.3457,0.3516,0.3624,0.3671,0.3706,0.3796,0.3836,0.3885,0.3963,0.3994,0.4066,0.414,0.4209,0.4251,0.432,0.4381,0.4407,0.4403,0.4399,0.4396,0.4399,0.4438,0.4438,0.444,0.444,0.444,0,0,0.3436,0.3513,0.3545,0.3657,0.3718,0.3778,0.3821,0.3882,0.3928,0.4003,0.4076,0.4132,0.422,0.4288,0.4321,0.4333,0.4405,0.4397,0.4393,0.4399,0.4439,0.4439,0.4438,0.444,0.444,0.444,0,0,0.3429,0.3492,0.354,0.3601,0.3694,0.3754,0.3765,0.387,0.391,0.3984,0.4043,0.4099,0.4213,0.4275,0.4321,0.434,0.4381,0.4359,0.4342,0.4378,0.4378,0.4379,0.4387,0.4389,0.4362,0.4362,0.4362,0,0.3392,0.3484,0.3559,0.3618,0.3666,0.3738,0.3788,0.3843,0.3953,0.3985,0.3997,0.4145,0.4209,0.4293,0.4298,0.4332,0.4349,0.4348,0.4372,0.4373,0.4375,0.4384,0.4386,0.4359,0.436,0.436,0.436,0,0.3434,0.3497,0.3525,0.363,0.3682,0.3735,0.382,0.3863,0.3908,0.3967,0.4043,0.4124,0.421,0.4234,0.4277,0.4325,0.433,0.4356,0.4376,0.437,0.438,0.4384,0.4355,0.4356,0.4357,0.4358,0,0,0.338,0.3527,0.3536,0.3586,0.3694,0.3745,0.3803,0.3888,0.3924,0.3998,0.405,0.4147,0.4172,0.4224,0.4276,0.4308,0.432,0.4331,0.4335,0.4327,0.438,0.436,0.4363,0.4348,0.4349,0.435,0.4373,0,0.3389,0.3495,0.3566,0.3645,0.3706,0.3776,0.3826,0.3899,0.3956,0.4016,0.408,0.4148,0.4175,0.4208,0.4243,0.4311,0.4332,0.431,0.4398,0.44,0.4375,0.4368,0.4347,0.4365,0.4377,0.4378,0.4378,0,0.3413,0.3486,0.3571,0.3675,0.3704,0.3748,0.3833,0.3889,0.3974,0.4013,0.4073,0.4126,0.4191,0.4206,0.4298,0.4281,0.4322,0.4361,0.4363,0.4375,0.4389,0.438,0.4372,0.4375,0.4385,0.4384,0.4384,0,0.3367,0.3486,0.3554,0.3594,0.3716,0.3746,0.3798,0.3883,0.3931,0.4005,0.4037,0.4118,0.4162,0.4224,0.4298,0.4301,0.4383,0.4403,0.4419,0.4417,0.4434,0.4432,0.4433,0.4457,0.4457,0.4457,0.4457,0,0.3371,0.342,0.3535,0.3576,0.3635,0.3716,0.3772,0.383,0.3905,0.396,0.4025,0.4075,0.417,0.4232,0.429,0.4358,0.4377,0.4412,0.4427,0.4407,0.4403,0.4435,0.4436,0.4458,0.4458,0.4457,0.4457,0,0.3329,0.3407,0.3485,0.3595,0.3624,0.3663,0.3758,0.3801,0.3863,0.3931,0.3952,0.4049,0.4125,0.4205,0.4308,0.4348,0.4415,0.4435,0.4386,0.4395,0.4407,0.4405,0.4429,0.4437,0.4454,0.4454,0.4454,0,0.3326,0.3366,0.3481,0.3523,0.3574,0.364,0.3689,0.3771,0.382,0.3921,0.3952,0.4034,0.4104,0.4223,0.4303,0.4383,0.4406,0.4409,0.4419,0.4398,0.4408,0.4405,0.4411,0.4406,0.4405,0.4405,0.4405,0,0.3314,0.3351,0.342,0.3502,0.356,0.3629,0.37,0.373,0.3827,0.3879,0.3958,0.4012,0.4119,0.42,0.429,0.4345,0.4392,0.4401,0.4409,0.439,0.436,0.4378,0.4379,0.44,0.4401,0.4401,0.4401,0.4401,0.3293,0.3333,0.3421,0.3495,0.3558,0.3624,0.3671,0.3739,0.3806,0.39,0.3945,0.4025,0.411,0.4236,0.429,0.4355,0.4368,0.4379,0.4383,0.4384,0.438,0.4349,0.4371,0.4372,0.4372,0.4372,0.4372,0,0.3286,0.3346,0.3414,0.3512,0.3572,0.361,0.3692,0.3739,0.3809,0.3885,0.3953,0.4045,0.4125,0.4211,0.4296,0.4331,0.4354,0.435,0.4349,0.4362,0.4363,0.4348,0.433,0.433,0.433,0.433,0.433,0.433,0.3289,0.3359,0.3407,0.351,0.357,0.3649,0.3693,0.3755,0.3816,0.3917,0.3983,0.4039,0.412,0.4211,0.4286,0.431,0.4339,0.4329,0.4358,0.4358,0.4361,0.4364,0.4351,0.4334,0.4334,0.4353,0.4353,0.4353]}]]